Middlebury State AP, Middlebu, VT

4:49 AM EDT on May 30, 2017 (GMT -0400)
Middlebury State AP, Middlebu

Weather History for K6B0 - April, 2014

Change the Weather History Date:

Friday, April 11, 2014

  Actual Average (KRUT) Record (KRUT)
Temperature  
Mean Temperature 51 °F -  
Max Temperature 63 °F 51 °F 81 °F (2017)
Min Temperature 39 °F 29 °F 14 °F (1974)
Degree Days  
Heating Degree Days 14    
Growing Degree Days 1 (Base 50)    
Moisture  
Dew Point 32 °F    
Average Humidity 45    
Maximum Humidity 85    
Minimum Humidity 24    
Precipitation  
Precipitation 0.00 in - - ()
Sea Level Pressure  
Sea Level Pressure 29.93 in    
Wind  
Wind Speed 7 mph (South)    
Max Wind Speed 14 mph    
Max Gust Speed 23 mph    
Visibility 10 miles    
Events      
Averages and records for this station are not official NWS values.
T = Trace of Precipitation, MM = Missing Value Source: NWS Daily Summary

Daily Weather History Graph

Daily Weather History Graph

Search for Another Location

Airport or City:

Trip Planner

Search our weather history database for the weather conditions in past years. The results will help you decide how hot, cold, wet, or windy it might be!

Date:

Astronomy

Apr. 11, 2014 Rise Set
Actual Time 6:16 AM EDT 7:31 PM EDT
Civil Twilight 5:46 AM EDT 8:01 PM EDT
Nautical Twilight 5:10 AM EDT 8:37 PM EDT
Astronomical Twilight 4:32 AM EDT 9:15 PM EDT
Moon 4:02 PM EDT (4/11) 4:17 AM EDT (4/11)
Length of Visible Light 14h 14m
Length of Day
13h 15m
Waxing Gibbous, 87% of the Moon is Illuminated
Apr 11
Waxing Gibbous
Apr 15
Full
Apr 22
Last Quarter
Apr 29
New
May 6
First Quarter

Hourly Weather History & Observations

Time (EDT) Temp. Dew Point Humidity Pressure Visibility Wind Dir Wind Speed Gust Speed Precip Events Conditions
12:15 AM 55.6 °F 30.4 °F 38% 29.83 in 10.0 mi SE 13.8 mph 23.0 mph N/A   Scattered Clouds
12:35 AM 55.9 °F 30.6 °F 38% 29.83 in 10.0 mi ESE 13.8 mph 23.0 mph N/A   Mostly Cloudy
12:55 AM 55.8 °F 30.7 °F 39% 29.83 in 10.0 mi ESE 11.5 mph 16.1 mph N/A   Mostly Cloudy
1:15 AM 56.1 °F 31.1 °F 39% 29.84 in 10.0 mi ESE 9.2 mph 18.4 mph N/A   Mostly Cloudy
1:35 AM 55.6 °F 31.3 °F 40% 29.84 in 10.0 mi ESE 11.5 mph 18.4 mph N/A   Overcast
1:55 AM 55.8 °F 31.6 °F 40% 29.83 in 10.0 mi ESE 10.4 mph - N/A   Overcast
2:15 AM 55.4 °F 31.8 °F 41% 29.83 in 10.0 mi ESE 12.7 mph 18.4 mph N/A   Overcast
2:35 AM 55.4 °F 32.0 °F 41% 29.83 in 10.0 mi ESE 9.2 mph - N/A   Overcast
2:55 AM 54.5 °F 32.0 °F 42% 29.83 in 10.0 mi SE 8.1 mph - N/A   Mostly Cloudy
3:15 AM 54.3 °F 32.0 °F 43% 29.84 in 10.0 mi South 4.6 mph - N/A   Mostly Cloudy
3:35 AM 52.3 °F 32.0 °F 46% 29.85 in 10.0 mi Calm Calm - N/A   Overcast
3:55 AM 52.0 °F 32.7 °F 48% 29.85 in 10.0 mi ESE 6.9 mph - N/A   Overcast
4:15 AM 53.1 °F 32.4 °F 45% 29.85 in 10.0 mi ESE 6.9 mph - N/A   Overcast
4:35 AM 53.1 °F 32.4 °F 45% 29.85 in 10.0 mi Calm Calm - N/A   Overcast
4:55 AM 52.7 °F 32.9 °F 47% 29.85 in 10.0 mi ESE 4.6 mph - N/A   Overcast
5:15 AM 52.7 °F 33.1 °F 47% 29.86 in 10.0 mi SE 3.5 mph - N/A   Overcast
5:35 AM 52.5 °F 33.1 °F 48% 29.87 in 10.0 mi SE 5.8 mph - N/A   Overcast
5:55 AM 52.3 °F 33.3 °F 48% 29.90 in 10.0 mi West 6.9 mph - N/A   Overcast
6:15 AM 50.4 °F 34.0 °F 53% 29.89 in 10.0 mi NNE 3.5 mph - N/A   Overcast
6:35 AM 48.7 °F 34.7 °F 58% 29.91 in 10.0 mi Calm Calm - N/A   Overcast
6:55 AM 48.4 °F 35.2 °F 60% 29.91 in 10.0 mi Calm Calm - N/A   Mostly Cloudy
7:15 AM 47.5 °F 35.4 °F 63% 29.92 in 10.0 mi Calm Calm - N/A   Scattered Clouds
7:35 AM 46.6 °F 35.6 °F 66% 29.94 in 10.0 mi Calm Calm - N/A   Clear
7:55 AM 46.8 °F 36.0 °F 66% 29.94 in 10.0 mi Calm Calm - N/A   Scattered Clouds
8:15 AM 47.1 °F 37.2 °F 68% 29.95 in 10.0 mi Calm Calm - N/A   Scattered Clouds
8:35 AM 52.7 °F 37.2 °F 56% 29.96 in 10.0 mi SE 3.5 mph - N/A   Clear
8:55 AM 53.8 °F 38.5 °F 56% 29.97 in 10.0 mi Calm Calm - N/A   Clear
9:15 AM 55.2 °F 37.0 °F 50% 29.97 in 10.0 mi Calm Calm - N/A   Clear
9:35 AM 55.8 °F 38.7 °F 53% 29.97 in 10.0 mi SE 5.8 mph - N/A   Clear
10:15 AM 56.8 °F 36.0 °F 46% 29.97 in 10.0 mi NW 3.5 mph - N/A   Clear
10:35 AM 58.1 °F 34.9 °F 42% 29.97 in 10.0 mi Calm Calm - N/A   Clear
10:55 AM 59.2 °F 33.6 °F 38% 29.96 in 10.0 mi South 8.1 mph - N/A   Clear
11:15 AM 60.4 °F 30.6 °F 32% 29.96 in 10.0 mi SSE 11.5 mph 20.7 mph N/A   Clear
11:35 AM 60.8 °F 26.6 °F 27% 29.96 in 10.0 mi SSW 4.6 mph - N/A   Clear
11:55 AM 61.0 °F 28.4 °F 29% 29.96 in 10.0 mi SSE 4.6 mph - N/A   Clear
12:15 PM 61.9 °F 27.9 °F 28% 29.96 in 10.0 mi South 8.1 mph - N/A   Clear
12:35 PM 61.0 °F 28.6 °F 29% 29.95 in 10.0 mi SSW 8.1 mph - N/A   Clear
12:55 PM 61.9 °F 28.6 °F 28% 29.93 in 10.0 mi South 4.6 mph - N/A   Clear
1:15 PM 61.3 °F 27.0 °F 27% 29.95 in 10.0 mi South 8.1 mph - N/A   Clear
1:35 PM 62.2 °F 29.5 °F 29% 29.95 in 10.0 mi SW 5.8 mph - N/A   Clear
1:55 PM 62.4 °F 28.8 °F 28% 29.94 in 10.0 mi SSW 3.5 mph - N/A   Scattered Clouds
2:15 PM 63.5 °F 28.6 °F 27% 29.94 in 10.0 mi West 9.2 mph - N/A   Clear
2:35 PM 62.8 °F 27.3 °F 26% 29.94 in 10.0 mi SW 6.9 mph 16.1 mph N/A   Clear
2:55 PM 62.8 °F 27.1 °F 26% 29.93 in 10.0 mi West 8.1 mph - N/A   Clear
3:15 PM 63.0 °F 26.4 °F 25% 29.93 in 10.0 mi WSW 6.9 mph - N/A   Clear
3:35 PM 62.6 °F 26.1 °F 25% 29.94 in 10.0 mi WSW 5.8 mph - N/A   Clear
3:55 PM 61.7 °F 24.6 °F 24% 29.94 in 10.0 mi WSW 6.9 mph - N/A   Clear
4:15 PM 60.8 °F 25.2 °F 26% 29.93 in 10.0 mi West 6.9 mph - N/A   Scattered Clouds
4:35 PM 60.1 °F 25.7 °F 27% 29.93 in 10.0 mi West 3.5 mph - N/A   Overcast
4:55 PM 59.7 °F 26.8 °F 28% 29.94 in 10.0 mi Calm Calm - N/A   Overcast
5:15 PM 58.8 °F 28.2 °F 31% 29.93 in 10.0 mi West 8.1 mph - N/A   Overcast
5:35 PM 58.5 °F 28.6 °F 32% 29.93 in 10.0 mi WNW 8.1 mph - N/A   Overcast
5:55 PM 58.1 °F 28.6 °F 32% 29.94 in 10.0 mi WNW 6.9 mph - N/A   Overcast
6:15 PM 57.0 °F 28.0 °F 33% 29.95 in 10.0 mi WNW 5.8 mph - N/A   Overcast
6:35 PM 56.3 °F 27.3 °F 33% 29.96 in 10.0 mi WNW 4.6 mph - N/A   Overcast
6:55 PM 55.4 °F 29.5 °F 37% 29.96 in 10.0 mi NW 3.5 mph - N/A   Overcast
7:15 PM 55.9 °F 27.9 °F 34% 29.97 in 10.0 mi Calm Calm - N/A   Mostly Cloudy
7:35 PM 53.2 °F 29.7 °F 40% 29.97 in 10.0 mi Calm Calm - N/A   Scattered Clouds
7:55 PM 52.7 °F 29.1 °F 40% 29.96 in 10.0 mi Calm Calm - N/A   Scattered Clouds
8:15 PM 47.8 °F 32.9 °F 56% 29.97 in 10.0 mi Calm Calm - N/A   Scattered Clouds
8:35 PM 47.3 °F 33.4 °F 59% 29.99 in 10.0 mi Calm Calm - N/A   Overcast
8:55 PM 47.3 °F 32.0 °F 55% 30.00 in 10.0 mi ESE 3.5 mph - N/A   Mostly Cloudy
9:15 PM 47.1 °F 32.0 °F 56% 30.02 in 10.0 mi Calm Calm - N/A   Clear
9:35 PM 46.8 °F 33.4 °F 60% 30.02 in 10.0 mi Calm Calm - N/A   Clear
9:55 PM 45.1 °F 33.8 °F 65% 30.02 in 10.0 mi Calm Calm - N/A   Clear
10:15 PM 43.5 °F 34.9 °F 72% 30.02 in 10.0 mi Calm Calm - N/A   Clear
10:35 PM 41.2 °F 34.3 °F 77% 30.02 in 10.0 mi Calm Calm - N/A   Clear
10:55 PM 41.2 °F 34.9 °F 78% 30.02 in 10.0 mi Calm Calm - N/A   Clear
11:15 PM 39.9 °F 34.9 °F 82% 30.01 in 10.0 mi Calm Calm - N/A   Clear
11:35 PM 39.9 °F 35.1 °F 83% 30.02 in 10.0 mi Calm Calm - N/A   Clear
11:55 PM 39.6 °F 35.4 °F 85% 30.01 in 10.0 mi Calm Calm - N/A   Clear